Simultaneous Nadir Overpasses (SNOs) Predictions

Prediction of SNOs between LANDSAT-8 and NPP Satellite Orbit:

Table of predicted SNOs for the next 14.0 days since TLE Epoch: 4/19/2014
Index Date (LANDSAT-8) Time (LANDSAT-8) Lat,Lon (LANDSAT-8) SZA (LANDSAT-8 ) Date (NPP) Time (NPP) Lat,Lon (NPP) SZA (NPP ) Distance(km) Time Diff (sec)
1 04/20/2014 02:50:46 71.15, 135.09 59.60 04/20/2014 02:49:37 71.17, 133.23 59.67 67.01 69
2 04/20/2014 03:40:26 -70.49, -58.28 121.06 04/20/2014 03:40:07 -70.47, -58.28 121.08 2.40 19
3 04/20/2014 04:29:53 70.39, 109.21 58.83 04/20/2014 04:30:52 70.39, 109.16 58.83 2.07 59
4 04/22/2014 19:07:27 70.56,-109.94 58.12 04/22/2014 19:06:26 70.58,-110.01 58.14 3.14 61
5 04/22/2014 19:56:57 -70.46, 57.53 122.00 04/22/2014 19:57:07 -70.45, 57.52 122.01 1.31 10
6 04/22/2014 20:46:33 69.86,-135.68 57.41 04/22/2014 20:47:42 69.84,-134.23 57.36 55.41 69
7 04/25/2014 11:24:00 70.55, 5.88 57.21 04/25/2014 11:23:25 70.52, 5.86 57.19 3.22 35
8 04/25/2014 12:13:30 -70.44, 173.36 122.90 04/25/2014 12:14:07 -70.44, 173.31 122.91 2.30 37
9 04/28/2014 02:50:59 -71.08, -45.10 123.11 04/28/2014 02:49:49 -71.11, -46.67 123.05 56.69 70
10 04/28/2014 03:40:35 70.49, 121.64 56.30 04/28/2014 03:40:24 70.52, 121.63 56.33 3.20 11
11 04/28/2014 04:30:05 -70.39, -70.87 123.81 04/28/2014 04:31:05 -70.38, -70.84 123.83 1.81 60
12 04/30/2014 19:07:45 -70.61, 70.00 124.41 04/30/2014 19:06:39 -70.59, 69.96 124.41 2.29 66
13 04/30/2014 19:57:13 70.45,-122.59
